Weather Roundup
Issued by NWS Chicago, IL

Home | Current Version | Previous Version | Graphics & Text | Print | Product List | Glossary On
Versions: 1 2 3 4 5 6 7 8 9 10 11 12 13 14 15 16 17 18 19 20 21 22 23 24 25 26 27 28 29 30 31 32 33 34 35 36 37 38 39 40 41 42 43 44 45 46 47 48 49 50
000
NZUS59 KLOT 231503
HRRLOT

CHICAGO AREA WEATHER ROUNDUP
NATIONAL WEATHER SERVICE CHICAGO/ROMEOVILLE IL
1000 AM CDT SUN APR 23 2017

NOTE: "FAIR" INDICATES FEW OR NO CLOUDS BELOW 12,000 FEET WITH NO
SIGNIFICANT WEATHER AND/OR OBSTRUCTIONS TO VISIBILITY.

* THESE STATIONS ARE NOT UNDER NWS QUALITY CONTROL. THEY ALSO MAY NOT
  REPORT WEATHER SUCH AS PRECIPITATION OR FOG.

ILZ005-006-012>014-019>023-231600-
NORTHEAST ILLINOIS

CITY           SKY/WX    TMP DP  RH WIND       PRES   REMARKS
OHARE          MOSUNNY   60  28  29 W5        30.13F
MIDWAY         MOSUNNY   59  29  31 CALM      30.14F
AURORA         SUNNY     59  30  33 NW6       30.15F
LANSING*       SUNNY     58  36  43 CALM      30.14F
JOLIET*        SUNNY     60  33  36 CALM      30.14F
WAUKEGAN       SUNNY     61  31  32 SW7       30.13F
DUPAGE AIRPORT SUNNY     61  31  32 NW3       30.13F
WHEELING       SUNNY     61  32  33 VRB3      30.15S
KANKAKEE*      SUNNY     61  31  32 N8        30.14S
MORRIS*        SUNNY     58  29  33 CALM      30.13F
LEWIS AIRPORT* SUNNY     58  36  44 CALM      30.14F
NORTHERLY ISL    N/A     54  41  61 E3          N/A
$$

WIZ051-052-058>065-066-070>072-231600-
SOUTHEAST WISCONSIN

CITY           SKY/WX    TMP DP  RH WIND       PRES   REMARKS
MILWAUKEE      MOSUNNY   63  29  27 VRB7      30.12F
KENOSHA*       SUNNY     61  33  35 W8        30.13S
RACINE*        SUNNY     60  32  34 W8        30.14S
WAUKESHA       SUNNY     59  30  33 W5        30.13F
WEST BEND      SUNNY     61  32  33 W8        30.10F
$$

INZ001>003-010>013-019-020-231600-
NORTHWEST INDIANA

CITY           SKY/WX    TMP DP  RH WIND       PRES   REMARKS
GARY*          SUNNY     61  23  23 CALM      30.14F
MICHIGAN CITY* NOT AVBL
RENSSELAER*    NOT AVBL
VALPARAISO     SUNNY     61  31  32 NE6       30.13F
$$

LMZ740>746-231600-
SOUTHERN LAKE MICHIGAN

STATION/POSITION TIME  SKY/WX   TEMP WIND        PRES    VSBY
                                AIR  DIR/SP/G
                 (UTC)          (F)  (DEG/KT/KT) (MB)    (MI)
HARRISON CRIB    1430            59     CALM       N/A
BURNHAM HARBOR   1500            55   80/  2/  4   N/A
CALUMET HARBOR   1430            52   60/  4/  4 1020.1F
BURNS HARBOR     1440            48  350/  4/  5 1021.0F
MICHIGAN CITY    1430            49  330/  5/  5   N/A
$$

ABBREVIATIONS USED IN REMARKS
   TC - TEMPERATURE IN CELSIUS
  WCI - WIND CHILL INDEX
   HX - HEAT INDEX
  VSB - VISIBILITY
$$



USA.gov is the U.S. government's official web portal to all federal, state and local government web resources and services.